5NYEM DNYO-DGAA

Flight info

Callsign 5NYEM
Flight time 1h 44m
Altitude 43000
Route APIRO UT457 LAG UL433 EREKA EREKA1B
Aircraft C750/M-SBDE3FGHRWXY/S

Departure

Time 2026-05-06 09:09
Airport Yola Airport (DNYO)

Arrival

Time 2026-05-06 10:54
Airport Kotoka International Airport (DGAA)
Time Latitude Longitude Altitude Speed Heading
2026-05-06 08:51 9.25730 12.43282 590 ft 0 kts 262°
2026-05-06 09:01 9.25730 12.43281 590 ft 1 kts 262°
2026-05-06 09:02 9.25735 12.43265 588 ft 5 kts 285°
2026-05-06 09:02 9.25771 12.43246 587 ft 6 kts 352°
2026-05-06 09:02 9.25821 12.43238 587 ft 8 kts 351°
2026-05-06 09:02 9.25832 12.43224 586 ft 2 kts 278°
2026-05-06 09:03 9.25831 12.43214 586 ft 1 kts 262°
2026-05-06 09:03 9.25829 12.43201 586 ft 4 kts 261°
2026-05-06 09:03 9.25824 12.43165 586 ft 5 kts 262°
2026-05-06 09:03 9.25820 12.43135 587 ft 3 kts 262°
2026-05-06 09:04 9.25817 12.43117 587 ft 2 kts 262°
2026-05-06 09:04 9.25816 12.43111 587 ft 0 kts 262°
2026-05-06 09:04 9.25816 12.43110 587 ft 1 kts 261°
2026-05-06 09:05 9.25813 12.43089 587 ft 5 kts 261°
2026-05-06 09:05 9.25816 12.43044 589 ft 8 kts 304°
2026-05-06 09:05 9.25883 12.43022 588 ft 13 kts 351°
2026-05-06 09:05 9.25991 12.43004 585 ft 19 kts 350°
2026-05-06 09:06 9.26134 12.42980 582 ft 21 kts 350°
2026-05-06 09:06 9.26278 12.42956 581 ft 21 kts 351°
2026-05-06 09:06 9.26418 12.42933 580 ft 20 kts 351°
2026-05-06 09:06 9.26556 12.42909 578 ft 20 kts 350°
2026-05-06 09:07 9.26689 12.42887 576 ft 19 kts 350°
2026-05-06 09:07 9.26821 12.42865 575 ft 19 kts 351°
2026-05-06 09:07 9.26952 12.42843 573 ft 19 kts 350°
2026-05-06 09:07 9.27067 12.42843 573 ft 12 kts 356°
2026-05-06 09:08 9.27077 12.42831 572 ft 0 kts 251°
2026-05-06 09:08 9.27074 12.42829 574 ft 1 kts 224°
2026-05-06 09:08 9.27058 12.42824 570 ft 3 kts 180°
2026-05-06 09:08 9.27021 12.42831 571 ft 24 kts 171°
2026-05-06 09:09 9.26468 12.42923 578 ft 132 kts 171°
2026-05-06 09:09 9.25458 12.43109 952 ft 154 kts 174°
2026-05-06 09:09 9.24383 12.43344 1526 ft 164 kts 172°
2026-05-06 09:09 9.23235 12.43608 2073 ft 173 kts 172°
2026-05-06 09:10 9.22042 12.43947 2775 ft 185 kts 169°
2026-05-06 09:10 9.20703 12.44263 3166 ft 211 kts 178°
2026-05-06 09:10 9.19244 12.43796 3379 ft 238 kts 220°
2026-05-06 09:10 9.18350 12.42324 3798 ft 259 kts 256°
2026-05-06 09:11 9.18132 12.40528 4820 ft 258 kts 265°
2026-05-06 09:11 9.17873 12.38682 5501 ft 273 kts 261°
2026-05-06 09:11 9.17420 12.36775 6274 ft 284 kts 258°
2026-05-06 09:11 9.16923 12.34808 7041 ft 293 kts 258°
2026-05-06 09:12 9.16469 12.32778 7955 ft 299 kts 259°
2026-05-06 09:12 9.16020 12.30690 8884 ft 308 kts 260°
2026-05-06 09:12 9.15538 12.28548 9725 ft 318 kts 259°
2026-05-06 09:12 9.15029 12.26331 10329 ft 333 kts 259°
2026-05-06 09:13 9.14494 12.23959 10525 ft 360 kts 259°
2026-05-06 09:13 9.13917 12.21390 10701 ft 385 kts 259°
2026-05-06 09:13 9.13316 12.18746 11507 ft 385 kts 258°
2026-05-06 09:13 9.12713 12.16097 12310 ft 388 kts 258°
2026-05-06 09:14 9.12109 12.13419 13061 ft 392 kts 258°
2026-05-06 09:14 9.11502 12.10719 13791 ft 395 kts 257°
2026-05-06 09:14 9.10887 12.08006 14504 ft 396 kts 257°
2026-05-06 09:14 9.10268 12.05281 15188 ft 399 kts 257°
2026-05-06 09:15 9.09655 12.02572 15859 ft 402 kts 257°
2026-05-06 09:15 9.09029 11.99808 16556 ft 405 kts 257°
2026-05-06 09:15 9.08397 11.97018 17313 ft 406 kts 257°
2026-05-06 09:15 9.07765 11.94237 18189 ft 405 kts 256°
2026-05-06 09:16 9.07133 11.91449 18861 ft 409 kts 256°
2026-05-06 09:16 9.06494 11.88628 19459 ft 414 kts 256°
2026-05-06 09:16 9.05845 11.85772 20074 ft 419 kts 256°
2026-05-06 09:16 9.05188 11.82881 20731 ft 424 kts 256°
2026-05-06 09:17 9.04524 11.79957 21361 ft 429 kts 256°
2026-05-06 09:17 9.03853 11.77002 22015 ft 433 kts 256°
2026-05-06 09:17 9.03173 11.74013 22628 ft 439 kts 257°
2026-05-06 09:17 9.02485 11.70986 23256 ft 444 kts 256°
2026-05-06 09:18 9.01788 11.67923 23825 ft 449 kts 257°
2026-05-06 09:18 9.01085 11.64837 24422 ft 451 kts 257°
2026-05-06 09:18 9.00380 11.61738 24993 ft 455 kts 258°
2026-05-06 09:18 8.99668 11.58608 25569 ft 458 kts 258°
2026-05-06 09:19 8.98950 11.55459 26150 ft 461 kts 258°
2026-05-06 09:19 8.98226 11.52286 26714 ft 465 kts 259°
2026-05-06 09:19 8.97498 11.49093 27289 ft 468 kts 259°
2026-05-06 09:19 8.96765 11.45878 27873 ft 471 kts 259°
2026-05-06 09:20 8.96026 11.42640 28458 ft 474 kts 259°
2026-05-06 09:20 8.95281 11.39381 29004 ft 478 kts 259°
2026-05-06 09:20 8.94531 11.36095 29546 ft 481 kts 259°
2026-05-06 09:20 8.93776 11.32793 30052 ft 484 kts 259°
2026-05-06 09:21 8.93014 11.29461 30505 ft 487 kts 259°
2026-05-06 09:21 8.92261 11.26171 30995 ft 488 kts 259°
2026-05-06 09:21 8.91498 11.22842 31711 ft 483 kts 260°
2026-05-06 09:21 8.90743 11.19545 32401 ft 479 kts 260°
2026-05-06 09:22 8.89994 11.16270 33076 ft 476 kts 260°
2026-05-06 09:22 8.89250 11.13022 33759 ft 473 kts 261°
2026-05-06 09:22 8.88508 11.09787 34368 ft 471 kts 261°
2026-05-06 09:22 8.87770 11.06571 34928 ft 469 kts 260°
2026-05-06 09:23 8.87036 11.03367 35485 ft 467 kts 260°
2026-05-06 09:23 8.86302 11.00170 36019 ft 466 kts 260°
2026-05-06 09:23 8.85572 10.96992 36619 ft 463 kts 259°
2026-05-06 09:23 8.84844 10.93825 37205 ft 462 kts 259°
2026-05-06 09:24 8.84119 10.90666 37798 ft 460 kts 259°
2026-05-06 09:24 8.83397 10.87525 38416 ft 458 kts 259°
2026-05-06 09:24 8.82676 10.84394 38962 ft 456 kts 259°
2026-05-06 09:24 8.81960 10.81279 39472 ft 455 kts 259°
2026-05-06 09:25 8.81244 10.78168 39997 ft 453 kts 259°
2026-05-06 09:25 8.80541 10.75114 40519 ft 451 kts 259°
2026-05-06 09:25 8.79829 10.72024 41038 ft 450 kts 259°
2026-05-06 09:25 8.79121 10.68954 41545 ft 448 kts 259°
2026-05-06 09:26 8.78414 10.65885 42031 ft 447 kts 259°
2026-05-06 09:26 8.77709 10.62829 42492 ft 446 kts 259°
2026-05-06 09:26 8.77009 10.59798 42912 ft 441 kts 259°
2026-05-06 09:27 8.75589 10.53634 42909 ft 459 kts 259°
2026-05-06 09:27 8.74112 10.47248 42931 ft 474 kts 259°
2026-05-06 09:28 8.72589 10.40657 42929 ft 487 kts 259°
2026-05-06 09:28 8.71031 10.33928 42927 ft 495 kts 259°
2026-05-06 09:29 8.69461 10.27151 42931 ft 495 kts 259°
2026-05-06 09:29 8.67890 10.20372 42930 ft 496 kts 258°
2026-05-06 09:30 8.66315 10.13584 42921 ft 496 kts 258°
2026-05-06 09:30 8.64738 10.06792 42926 ft 497 kts 258°
2026-05-06 09:31 8.63159 9.99996 42930 ft 497 kts 258°
2026-05-06 09:31 8.61574 9.93183 42928 ft 498 kts 258°
2026-05-06 09:32 8.59986 9.86361 42931 ft 499 kts 258°
2026-05-06 09:32 8.58401 9.79560 42936 ft 501 kts 258°
2026-05-06 09:33 8.56808 9.72705 42934 ft 501 kts 259°
2026-05-06 09:33 8.55391 9.65806 42929 ft 502 kts 259°
2026-05-06 09:34 8.53947 9.58908 42928 ft 502 kts 260°
2026-05-06 09:34 8.52533 9.52009 42931 ft 501 kts 260°
2026-05-06 09:35 8.51096 9.45116 42928 ft 501 kts 260°
2026-05-06 09:35 8.49675 9.38232 42936 ft 501 kts 260°
2026-05-06 09:36 8.48484 9.32509 42936 ft 501 kts 260°
2026-05-06 09:36 8.47054 9.25621 42937 ft 500 kts 260°
2026-05-06 09:37 8.45626 9.18748 42938 ft 500 kts 259°
2026-05-06 09:37 8.44194 9.11868 42943 ft 500 kts 259°
2026-05-06 09:38 8.42762 9.04987 42935 ft 501 kts 259°
2026-05-06 09:38 8.41325 8.98109 42943 ft 501 kts 259°
2026-05-06 09:39 8.39867 8.91231 42935 ft 500 kts 259°
2026-05-06 09:39 8.38420 8.84348 42943 ft 502 kts 259°
2026-05-06 09:40 8.36959 8.77441 42944 ft 503 kts 259°
2026-05-06 09:40 8.34788 8.67066 42946 ft 503 kts 259°
2026-05-06 09:41 8.33332 8.60158 42941 ft 503 kts 259°
2026-05-06 09:41 8.31880 8.53243 42947 ft 503 kts 259°
2026-05-06 09:42 8.30433 8.46375 42945 ft 503 kts 259°
2026-05-06 09:42 8.28977 8.39463 42945 ft 504 kts 259°
2026-05-06 09:43 8.27517 8.32544 42951 ft 504 kts 259°
2026-05-06 09:43 8.26055 8.25615 42950 ft 504 kts 259°
2026-05-06 09:44 8.24592 8.18691 42939 ft 505 kts 259°
2026-05-06 09:44 8.23127 8.11759 42945 ft 505 kts 259°
2026-05-06 09:45 8.21474 8.04869 42945 ft 506 kts 254°
2026-05-06 09:45 8.19281 7.98112 42939 ft 507 kts 253°
2026-05-06 09:46 8.17189 7.91323 42951 ft 507 kts 254°
2026-05-06 09:46 8.15057 7.84595 42940 ft 507 kts 253°
2026-05-06 09:47 8.12926 7.77796 42947 ft 507 kts 253°
2026-05-06 09:47 8.10790 7.71007 42951 ft 507 kts 253°
2026-05-06 09:48 8.08652 7.64221 42940 ft 507 kts 253°
2026-05-06 09:48 8.06519 7.57440 42935 ft 508 kts 253°
2026-05-06 09:49 8.04403 7.50688 42938 ft 507 kts 253°
2026-05-06 09:49 8.02271 7.43894 42940 ft 507 kts 253°
2026-05-06 09:50 8.00137 7.37102 42940 ft 508 kts 253°
2026-05-06 09:50 7.98004 7.30308 42941 ft 508 kts 253°
2026-05-06 09:51 7.95863 7.23502 42950 ft 509 kts 253°
2026-05-06 09:51 7.93723 7.16699 42943 ft 509 kts 253°
2026-05-06 09:52 7.91581 7.09902 42951 ft 508 kts 253°
2026-05-06 09:52 7.89439 7.03102 42951 ft 509 kts 253°
2026-05-06 09:53 7.87297 6.96309 42948 ft 508 kts 253°
2026-05-06 09:53 7.85152 6.89511 42948 ft 509 kts 253°
2026-05-06 09:54 7.83006 6.82716 42955 ft 509 kts 253°
2026-05-06 09:54 7.80856 6.75909 42957 ft 509 kts 253°
2026-05-06 09:55 7.78708 6.69115 42951 ft 509 kts 253°
2026-05-06 09:55 7.76555 6.62307 42953 ft 509 kts 253°
2026-05-06 09:56 7.74402 6.55505 42954 ft 509 kts 253°
2026-05-06 09:56 7.72266 6.48743 42955 ft 509 kts 253°
2026-05-06 09:57 7.70111 6.41936 42957 ft 509 kts 253°
2026-05-06 09:57 7.67959 6.35138 42968 ft 510 kts 253°
2026-05-06 09:58 7.65799 6.28322 42963 ft 510 kts 252°
2026-05-06 09:58 7.63643 6.21518 42956 ft 509 kts 252°
2026-05-06 09:59 7.61483 6.14709 42950 ft 510 kts 252°
2026-05-06 09:59 7.59323 6.07901 42957 ft 510 kts 252°
2026-05-06 10:00 7.57156 6.01078 42954 ft 511 kts 252°
2026-05-06 10:00 7.54989 5.94257 42956 ft 511 kts 252°
2026-05-06 10:01 7.52820 5.87435 42954 ft 511 kts 252°
2026-05-06 10:01 7.50650 5.80613 42958 ft 511 kts 252°
2026-05-06 10:02 7.48483 5.73805 42949 ft 510 kts 252°
2026-05-06 10:02 7.46314 5.66995 42950 ft 510 kts 252°
2026-05-06 10:03 7.44147 5.60195 42960 ft 510 kts 252°
2026-05-06 10:03 7.41976 5.53386 42962 ft 511 kts 252°
2026-05-06 10:04 7.39804 5.46577 42950 ft 509 kts 252°
2026-05-06 10:04 7.37637 5.39790 42954 ft 509 kts 252°
2026-05-06 10:05 7.35470 5.33006 42953 ft 509 kts 252°
2026-05-06 10:05 7.33298 5.26211 42947 ft 510 kts 252°
2026-05-06 10:06 7.31123 5.19407 42950 ft 510 kts 252°
2026-05-06 10:06 7.28950 5.12616 42954 ft 509 kts 252°
2026-05-06 10:07 7.26779 5.05834 42957 ft 509 kts 252°
2026-05-06 10:07 7.24607 4.99052 42959 ft 509 kts 252°
2026-05-06 10:08 7.22447 4.92313 42954 ft 509 kts 252°
2026-05-06 10:08 7.20274 4.85535 42952 ft 509 kts 252°
2026-05-06 10:09 7.18099 4.78755 42951 ft 509 kts 252°
2026-05-06 10:09 7.15922 4.71975 42953 ft 509 kts 252°
2026-05-06 10:10 7.13744 4.65193 42953 ft 508 kts 252°
2026-05-06 10:10 7.11566 4.58418 42950 ft 509 kts 252°
2026-05-06 10:11 7.09389 4.51648 42949 ft 508 kts 252°
2026-05-06 10:11 7.07212 4.44880 42952 ft 508 kts 252°
2026-05-06 10:12 7.05034 4.38114 42955 ft 508 kts 252°
2026-05-06 10:12 7.02851 4.31353 42952 ft 508 kts 252°
2026-05-06 10:13 7.00656 4.24601 42949 ft 507 kts 252°
2026-05-06 10:13 6.98470 4.17853 42952 ft 507 kts 252°
2026-05-06 10:14 6.96277 4.11105 42950 ft 507 kts 252°
2026-05-06 10:14 6.94090 4.04363 42955 ft 507 kts 252°
2026-05-06 10:15 6.91896 3.97616 42953 ft 507 kts 252°
2026-05-06 10:15 6.89705 3.90875 42956 ft 507 kts 252°
2026-05-06 10:16 6.87530 3.84186 42956 ft 506 kts 252°
2026-05-06 10:16 6.85338 3.77450 42956 ft 506 kts 252°
2026-05-06 10:17 6.83147 3.70722 42959 ft 506 kts 252°
2026-05-06 10:17 6.81316 3.65102 42956 ft 507 kts 252°
2026-05-06 10:18 6.79121 3.58364 42962 ft 507 kts 252°
2026-05-06 10:18 6.76921 3.51618 42965 ft 507 kts 252°
2026-05-06 10:19 6.74720 3.44873 42973 ft 507 kts 252°
2026-05-06 10:19 6.72518 3.38126 42984 ft 508 kts 252°
2026-05-06 10:20 6.70267 3.31395 42973 ft 508 kts 250°
2026-05-06 10:20 6.67767 3.24744 42970 ft 508 kts 249°
2026-05-06 10:21 6.65699 3.19180 42969 ft 509 kts 250°
2026-05-06 10:21 6.63221 3.12558 42966 ft 509 kts 249°
2026-05-06 10:22 6.60714 3.05848 42959 ft 509 kts 249°
2026-05-06 10:22 6.58238 2.99226 42958 ft 509 kts 249°
2026-05-06 10:23 6.55745 2.92563 42951 ft 509 kts 249°
2026-05-06 10:23 6.53252 2.85901 42951 ft 509 kts 249°
2026-05-06 10:24 6.50757 2.79238 42950 ft 509 kts 249°
2026-05-06 10:24 6.48269 2.72579 42945 ft 509 kts 250°
2026-05-06 10:25 6.45875 2.65891 42940 ft 509 kts 250°
2026-05-06 10:25 6.43431 2.59208 42928 ft 509 kts 249°
2026-05-06 10:26 6.41011 2.52522 42921 ft 509 kts 250°
2026-05-06 10:26 6.38578 2.45836 42911 ft 509 kts 250°
2026-05-06 10:27 6.36233 2.39123 42886 ft 509 kts 255°
2026-05-06 10:27 6.35056 2.32118 42910 ft 509 kts 263°
2026-05-06 10:28 6.34000 2.25083 42920 ft 509 kts 260°
2026-05-06 10:28 6.32839 2.18061 42925 ft 509 kts 262°
2026-05-06 10:29 6.31779 2.11038 42932 ft 508 kts 261°
2026-05-06 10:29 6.30635 2.04029 42939 ft 508 kts 261°
2026-05-06 10:30 6.29553 1.97004 42933 ft 508 kts 261°
2026-05-06 10:30 6.28423 1.89978 42933 ft 509 kts 261°
2026-05-06 10:31 6.27331 1.82997 42935 ft 509 kts 261°
2026-05-06 10:31 6.26211 1.75978 42928 ft 509 kts 261°
2026-05-06 10:32 6.25102 1.68956 42923 ft 509 kts 261°
2026-05-06 10:32 6.23986 1.61936 42926 ft 509 kts 261°
2026-05-06 10:33 6.22871 1.54909 42941 ft 509 kts 262°
2026-05-06 10:33 6.21755 1.47894 42808 ft 502 kts 262°
2026-05-06 10:34 6.21204 1.44433 41680 ft 501 kts 261°
2026-05-06 10:34 6.20662 1.41028 40940 ft 489 kts 261°
2026-05-06 10:34 6.20129 1.37677 40151 ft 481 kts 261°
2026-05-06 10:34 6.19604 1.34382 39360 ft 475 kts 261°
2026-05-06 10:35 6.19085 1.31127 38547 ft 469 kts 261°
2026-05-06 10:35 6.18544 1.27919 37734 ft 463 kts 258°
2026-05-06 10:35 6.17627 1.24824 36961 ft 462 kts 249°
2026-05-06 10:35 6.16339 1.21860 36191 ft 465 kts 244°
2026-05-06 10:36 6.14916 1.18917 35407 ft 473 kts 244°
2026-05-06 10:36 6.13561 1.15877 34599 ft 481 kts 247°
2026-05-06 10:36 6.12293 1.12749 33653 ft 486 kts 248°
2026-05-06 10:36 6.10964 1.09595 32577 ft 491 kts 246°
2026-05-06 10:37 6.09560 1.06479 31733 ft 488 kts 245°
2026-05-06 10:37 6.08178 1.03370 30895 ft 487 kts 246°
2026-05-06 10:37 6.06851 1.00231 30079 ft 489 kts 248°
2026-05-06 10:37 6.05677 0.97041 29194 ft 483 kts 250°
2026-05-06 10:38 6.04489 0.93903 28333 ft 478 kts 249°
2026-05-06 10:38 6.03295 0.90809 27499 ft 472 kts 249°
2026-05-06 10:38 6.02148 0.87735 26682 ft 467 kts 250°
2026-05-06 10:38 6.01034 0.84693 25883 ft 462 kts 250°
2026-05-06 10:39 5.99925 0.81722 25103 ft 458 kts 249°
2026-05-06 10:39 5.98826 0.78743 24319 ft 452 kts 251°
2026-05-06 10:39 5.98177 0.75676 23554 ft 446 kts 261°
2026-05-06 10:39 5.97720 0.72602 22749 ft 441 kts 262°
2026-05-06 10:40 5.97276 0.69584 21998 ft 435 kts 261°
2026-05-06 10:40 5.96772 0.66599 21264 ft 431 kts 260°
2026-05-06 10:40 5.96261 0.63645 20545 ft 427 kts 260°
2026-05-06 10:40 5.95791 0.60713 19839 ft 424 kts 261°
2026-05-06 10:41 5.95336 0.57800 19134 ft 421 kts 261°
2026-05-06 10:41 5.94865 0.54907 18435 ft 418 kts 261°
2026-05-06 10:41 5.94387 0.52038 17703 ft 415 kts 260°
2026-05-06 10:41 5.93923 0.49197 17016 ft 410 kts 261°
2026-05-06 10:42 5.93468 0.46370 16347 ft 409 kts 261°
2026-05-06 10:42 5.93012 0.43559 15681 ft 407 kts 260°
2026-05-06 10:42 5.92553 0.40758 15016 ft 405 kts 260°
2026-05-06 10:42 5.92098 0.37969 14353 ft 403 kts 260°
2026-05-06 10:43 5.91649 0.35208 13695 ft 402 kts 260°
2026-05-06 10:43 5.91197 0.32437 13003 ft 398 kts 260°
2026-05-06 10:43 5.90751 0.29709 12354 ft 394 kts 260°
2026-05-06 10:44 5.89884 0.24396 11075 ft 371 kts 260°
2026-05-06 10:44 5.89476 0.21894 10472 ft 357 kts 260°
2026-05-06 10:44 5.89081 0.19476 9900 ft 344 kts 260°
2026-05-06 10:44 5.88713 0.17227 9325 ft 327 kts 260°
2026-05-06 10:45 5.88351 0.15012 8819 ft 307 kts 260°
2026-05-06 10:45 5.87996 0.12845 8311 ft 311 kts 261°
2026-05-06 10:45 5.87647 0.10711 7815 ft 307 kts 260°
2026-05-06 10:45 5.87309 0.08643 7348 ft 313 kts 261°
2026-05-06 10:46 5.86955 0.06479 6834 ft 311 kts 261°
2026-05-06 10:46 5.86611 0.04373 6348 ft 301 kts 261°
2026-05-06 10:46 5.86276 0.02327 5850 ft 292 kts 261°
2026-05-06 10:46 5.85950 0.00337 5403 ft 285 kts 261°
2026-05-06 10:47 5.85631 -0.01609 4959 ft 279 kts 261°
2026-05-06 10:47 5.85326 -0.03475 4515 ft 263 kts 261°
2026-05-06 10:47 5.85016 -0.05205 4096 ft 241 kts 257°
2026-05-06 10:47 5.84261 -0.06615 3673 ft 224 kts 227°
2026-05-06 10:48 5.82994 -0.07440 3360 ft 215 kts 205°
2026-05-06 10:48 5.81619 -0.08005 3075 ft 213 kts 202°
2026-05-06 10:48 5.80242 -0.08571 2744 ft 214 kts 203°
2026-05-06 10:48 5.78911 -0.09120 2407 ft 198 kts 203°
2026-05-06 10:49 5.77679 -0.09627 2096 ft 185 kts 203°
2026-05-06 10:49 5.76541 -0.10096 2028 ft 168 kts 203°
2026-05-06 10:49 5.75479 -0.10535 2019 ft 164 kts 204°
2026-05-06 10:49 5.74428 -0.10970 2030 ft 164 kts 203°
2026-05-06 10:50 5.73353 -0.11415 2017 ft 169 kts 203°
2026-05-06 10:50 5.72267 -0.11863 2040 ft 170 kts 203°
2026-05-06 10:50 5.71167 -0.12319 2031 ft 172 kts 204°
2026-05-06 10:50 5.70060 -0.12776 1948 ft 171 kts 204°
2026-05-06 10:51 5.69014 -0.13209 1729 ft 156 kts 203°
2026-05-06 10:51 5.68059 -0.13604 1533 ft 138 kts 204°
2026-05-06 10:51 5.67223 -0.13952 1354 ft 123 kts 204°
2026-05-06 10:51 5.66457 -0.14269 1218 ft 117 kts 204°
2026-05-06 10:52 5.65716 -0.14575 1092 ft 117 kts 204°
2026-05-06 10:52 5.64952 -0.14891 933 ft 118 kts 204°
2026-05-06 10:52 5.64188 -0.15207 786 ft 122 kts 206°
2026-05-06 10:52 5.63387 -0.15539 633 ft 127 kts 207°
2026-05-06 10:53 5.62559 -0.15886 413 ft 130 kts 207°
2026-05-06 10:53 5.61727 -0.16223 267 ft 127 kts 206°
2026-05-06 10:53 5.60949 -0.16545 231 ft 111 kts 206°
2026-05-06 10:53 5.60329 -0.16804 216 ft 74 kts 202°
2026-05-06 10:54 5.60021 -0.16932 202 ft 17 kts 213°
2026-05-06 10:54 5.59920 -0.17014 205 ft 19 kts 224°
2026-05-06 10:54 5.59848 -0.17099 202 ft 12 kts 244°
2026-05-06 10:54 5.59828 -0.17170 202 ft 9 kts 275°
2026-05-06 10:55 5.59844 -0.17216 206 ft 0 kts 294°
2026-05-06 10:55 5.59849 -0.17229 206 ft 6 kts 290°
2026-05-06 10:55 5.59875 -0.17293 208 ft 10 kts 291°
2026-05-06 10:55 5.59891 -0.17333 210 ft 3 kts 292°
2026-05-06 10:56 5.59892 -0.17336 210 ft 0 kts 292°